Regional Weather Roundup
Issued by NWS Grand Forks, ND

Home | Current Version | Previous Version | Text Only | Print | Product List | Glossary Off
Versions: 1 2 3 4 5 6 7 8 9 10 11 12 13 14 15 16 17 18 19 20 21 22 23 24 25 26 27 28 29 30 31 32 33 34 35 36 37 38 39 40 41 42 43 44 45 46 47 48 49 50

000
ASUS43 KFGF 131610
RWRFGF
PRAIRIE TO PINES  WEATHER ROUNDUP
NATIONAL WEATHER SERVICE EASTERN NORTH DAKOTA/GRAND FORKS ND
1000 AM CST WED DEC 13 2017

 **SATELLITE DATA USED TO AUGMENT SKY COVER AT AUTOMATED STATIONS**
 *****  WEATHER ACROSS EASTERN NORTH DAKOTA  *****

CITY           SKY/WX    TMP DP  RH WIND       PRES   REMARKS
GRAND FORKS    CLOUDY    27  25  92 N22G35    29.76R WCI  13
GRAND FRKS AFB CLOUDY    27  24  91 N21G26    29.77R WCI  13
GRAND FRKS NWS   N/A     27 N/A N/A N23         N/A  WCI  12
DEVILS LAKE    MIX PCPN  31  28  89 NW13      29.81R WCI  21
FARGO          CLOUDY    29  25  85 N22G30    29.75R WCI  15
WAHPETON ARPT  CLOUDY    30  23  74 N23G36    29.73R WCI  17
$$

 ***** WEATHER ACROSS CENTRAL AND WESTERN NORTH DAKOTA  *****

CITY           SKY/WX    TMP DP  RH WIND       PRES   REMARKS
BISMARCK       CLOUDY    36  29  75 NW20G29   29.91R
MINOT          CLOUDY    35  27  72 NW18      29.90R WCI  24
JAMESTOWN      CLOUDY    32  30  92 N18       29.79R WCI  20
MINOT AFB      CLOUDY    34  27  76 NW17      29.88R WCI  23
GARRISON         N/A     33  27  78 N30G38    29.91R WCI  19
WILLISTON      FAIR      35  26  69 NW18G25   30.01R WCI  24
DICKINSON      FAIR      32  26  78 NW21G29   29.95R WCI  20
HETTINGER      FAIR      34  25  69 NW26G36   29.99R WCI  21
$$

 *****  OTHER AIRPORT OBSERVATIONS IN OUR AREA  *****

CITY           SKY/WX    TMP DP  RH WIND       PRES   REMARKS
WALHALLA       FAIR      27  27 100 N16G24    29.79R WCI  14
GRAFTON AIRPOR CLOUDY    27  25  93 N21G29    29.80R WCI  13
VALLEY CITY AR FLURRIES  32  30  93 N21G30    29.79R WCI  20
CANDO          CLOUDY    32  32 100 NW15      29.83R WCI  22
CAVALIER APRT  MIX PCPN  25  25 100 N21       29.78R WCI  10
GWINNER          N/A     34  30  86 N22       29.76R WCI  22
ROLLA          CLOUDY    32  30  93 N16G23    29.80R WCI  21
 ***** THE ABOVE OBSERVATIONS ARE NON NWS ARE NOT QUALITY
       CONTROLLED AND MAY MIS-REPORT RAIN FOR SNOW...
$$

  *****  WEATHER ACROSS NORTHERN MINNESOTA  *****

CITY           SKY/WX    TMP DP  RH WIND       PRES   REMARKS
FLAG ISLAND    FLURRIES  12   9  85 N10       29.71R WCI  -1
WARROAD        FLURRIES  16  10  79 N7        29.72R WCI   6
ROSEAU         CLOUDY    18  12  79 N12       29.72R WCI   5
HALLOCK        CLOUDY    23  19  86 N16G22    29.76R WCI  10
THF RVR FALLS  MIX PCPN  19  17  92 N14       29.73R FOG     WCI   6
BAUDETTE       CLOUDY    15  10  80 N8        29.68R WCI   4
WASKISH        CLOUDY    16  12  86 N6        29.66R WCI   7
CROOKSTON      CLOUDY    25  21  86 N26       29.75R WCI   9
STEPHEN NDAWN    N/A     23  19  86 VRB17       N/A  WCI   9
GREENBUSH NDAW   N/A     18  16  93 N16         N/A  WCI   3
$$
  *****  WEATHER ACROSS CENTRAL AND WEST MINNESOTA  *****

CITY           SKY/WX    TMP DP  RH WIND       PRES   REMARKS
FOSSTON        CLOUDY    18  18 100 N16G22    29.69R FOG     WCI   3
BEMIDJI        CLOUDY    17  15  91 N12       29.65R WCI   4
PARK RAPIDS    CLOUDY    20  17  88 NW17G26   29.61R WCI   5
ELBOW LAKE     CLOUDY    26  24  92 NW24G33   29.68R WCI  10
WADENA         CLOUDY    21  21 100 NW17G25   29.61R FOG     WCI   7
DETROIT LAKES  CLOUDY    25  23  93 N26       29.67R FOG     WCI   9
MOORHEAD       CLOUDY    27  23  86 N26G32    29.74R WCI  11
FERGUS FALLS   CLOUDY    27  23  86 N30G44    29.71R WCI  10
MORRIS MN      CLOUDY    28  25  86 NW32G44   29.66R WCI  12
STAPLES        CLOUDY    23  19  86 N14G25    29.59R WCI  11
$$
  *****  WEATHER ELSEWHERE ACROSS MINNESOTA  *****

CITY           SKY/WX    TMP DP  RH WIND       PRES   REMARKS
DULUTH         FLURRIES  20  18  92 N8        29.51R WCI  10
INTRNTL FALLS  SNOW      15  11  83 NE9       29.65R VSB 1/2 WCI   3
ELY            LGT SNOW  16  12  86 N6        29.59R WCI   7
CLOQUET        CLOUDY    19  16  86 N13       29.52R WCI   7
WHEATON        CLOUDY    32  27  80 NW26G36   29.74R WCI  18
BRAINERD       CLOUDY    20  16  84 N15G28    29.58R FOG     WCI   6
HIBBING        LGT SNOW  18  15  88 N9        29.57R FOG     WCI   7
ALEXANDRIA     CLOUDY    26  22  84 NW15G28   29.63R WCI  14
SAINT CLOUD    CLOUDY    26  22  84 N23G31    29.55R WCI  11
MINNEAPOLIS    CLOUDY    26  24  92 N17G29    29.50R WCI  13
$$

  *****  WEATHER ACROSS SOUTH DAKOTA  *****

CITY           SKY/WX    TMP DP  RH WIND       PRES   REMARKS
SIOUX FALLS    CLOUDY    39  32  76 NW28G38   29.73R
BROOKINGS      NOT AVBL
WATERTOWN      CLOUDY    34  30  85 NW23G35   29.71R WCI  22
HURON          CLOUDY    38  30  73 N22G36    29.81R
SISSETON         N/A     34  30  85 N25G35    29.73R WCI  21
ABERDEEN       CLOUDY    37  31  78 N17       29.81R
MITCHELL       CLOUDY    41  30  65 N33G45    29.82R
PIERRE         FAIR      40  29  64 NW28G35   29.91R
MOBRIDGE       FAIR      39  29  67 NW22G31   29.86R
RAPID CITY     FAIR      42  21  43 NW35G44   30.03R
$$

  *****  SOME WEATHER IN NEARBY STATES *****

CITY           SKY/WX    TMP DP  RH WIND       PRES   REMARKS
GLASGOW MT     FAIR      31  25  78 NW9       30.12S WCI  23
GREAT FALLS MT FAIR      29  17  61 SW7       30.22R WCI  22
CHEYENNE WY    FAIR      38   9  30 N6        30.16R
SCOTTSBLUFF NE FAIR      42  14  32 W13       30.14R
OMAHA NE       FAIR      51  31  46 NW29G37   29.72R
DES MOINES IA  LGT RAIN  43  36  76 NW32G41   29.56R
DAVENPORT IA   FAIR      37  24  59 SW20      29.39F
CHICAGO IL     CLOUDY    31  18  58 S16G26    29.41F WCI  20
EAU CLAIRE WI  SNOW      20  18  92 NE6       29.42R VSB 1/4 WCI  12
LA CROSSE WI   FAIR      31  22  69 NE6       29.34R
$$

  *****  SOME NATIONAL WEATHER *****

CITY           SKY/WX    TMP DP  RH WIND       PRES   REMARKS
LA GUARDIA NY  PTSUNNY   26  11  52 W32G41    29.55F WCI   9
RALEIGH NC     FAIR      34   2  25 W8        29.99F
ATLANTA GA     FAIR      38  11  32 W6        30.07F
NEW ORLEANS LA PTSUNNY   51  36  56 S6        30.20R
OKLAHOMA CITY  FAIR      51  18  27 NW13      29.96R
ALBUQUERQUE NM FAIR      34   6  31 N5        30.21S
SALT LAKE CITY SNOW      23  21  92 CALM      30.37R VSB 1/2
LOS ANGELES CA FAIR      61  18  18 E3        30.02R
BOISE ID       CLOUDY    23  21  92 CALM      30.44S FOG
SEATTLE WA     FAIR      36  31  82 N5        30.42R
$$

*** WEATHER ACROSS MANITOBA...SASKATCHEWAN AND ONTARIO ***
                ***ONTARIO***

CITY           SKY/WX    TMP DP  RH WIND       PRES   REMARKS
GERALDTON      CLOUDY    -9 -13  84 NE5       29.81R WCI -21
THUNDER BAY    LGT SNOW  14  10  85 NE17      29.73R DRFTSNOWWCI  -3
SIOUX LOOKOUT  PTSUNNY    3  -2  78 E6        29.74R WCI  -8
TORONTO        MOSUNNY   16   5  62 NW14G21   29.72S WCI   1
BIG TROUT LK   LGT SNOW -18 -24  76 CALM      29.93
PICKLE LAKE    CLOUDY   -13 -18  77 NE3       29.80R FOG
DRYDEN         LGT SNOW   9   5  85 NE9       29.70R WCI  -5
KENORA         FLURRIES  10   7  85 NE6       29.70R WCI   1
$$
                *** MANITOBA***

CITY           SKY/WX    TMP DP  RH WIND       PRES   REMARKS
BRANDON        MOCLDY    32  25  74 N20       29.83R WCI  20
DAUPHIN        CLOUDY    21  19  93 NE15      29.92R WCI   8
ISLAND LAKE    PTCLDY    -8 -13  77 CALM      29.92R
PILOT MOUND      N/A     28  27  93 NW14        N/A  WCI  17
THE PAS        CLOUDY    14   9  79 N9        29.94S WCI   2
THOMPSON       MOCLDY   -11 -15  84 CALM      29.96R
WINNIPEG       FRZ DRZL  19  18  93 N18G24    29.81R DRFTSNOWWCI   4
LYNN LAKE      CLEAR     -4  -8  84 W3        29.90F
CHURCHILL      MOCLDY   -22 -27  76 SW5       30.01R WCI -36
$$
                ***SASKATCHEWAN***

CITY           SKY/WX    TMP DP  RH WIND       PRES   REMARKS
ESTEVAN        CLOUDY    32  27  80 NW14G22   29.96R WCI  22
KINDERSLEY     MOCLDY    28  25  86 W8        30.10R WCI  20
LLOYDMINSTER   MOCLDY    32  28  86 W13       30.04F WCI  22
PRINCE ALBERT  MOCLDY    28  23  80 W9        30.00R WCI  20
REGINA         MOCLDY    30  27  86 NW13      30.00R WCI  20
YORKTON        CLOUDY    32  27  80 NW18      29.88S WCI  20
N. BATTLEFORD  CLEAR     30  25  80 W9        30.06R WCI  22
LA RONGE       CLOUDY    27  23  86 CALM      29.94F
SASKATOON      MOCLDY    30  27  86 W12       30.04R WCI  21
SWIFT CURRENT  PTCLDY    27  25  93 W16       30.08S WCI  14
$$
NOTE: THESE ARE AUTOMATED STATIONS WITH LIMITED QUALITY CONTROL
      "FAIR" INDICATES FEW OR NO CLOUDS BELOW 12,000 FEET WITH NO
      SIGNIFICANT WEATHER AND/OR OBSTRUCTIONS TO VISIBILITY.
      SKY/WX - SKY CONDITION AND SIGNIFICANT WEATHER.
      TMP - AIR TEMPERATURE.    DP   - DEWPOINT TEMPERATURE.
      RH  - RELATIVE HUMIDITY.  PRES - PRESSURE.
      HX  - HEAT INDEX.         WCI  - WIND CHILL INDEX.
$




USA.gov is the U.S. government's official web portal to all federal, state and local government web resources and services.